Regional Weather Roundup
Issued by NWS Austin/San Antonio, TX

Home | Current Version | Previous Version | Text Only | Print | Product List | Glossary On
Versions: 1 2 3 4 5 6 7 8 9 10 11 12 13 14 15 16 17 18 19 20 21 22 23 24 25 26 27 28 29 30 31 32 33 34 35 36 37 38 39 40 41 42 43 44 45 46 47 48 49 50
000
ASUS44 KEWX 270111
RWREWX
SOUTH TEXAS REGIONAL WEATHER ROUNDUP
NATIONAL WEATHER SERVICE AUSTIN/SAN ANTONIO TX
700 PM CST SUN JAN 26 2020

NOTE: "FAIR" INDICATED FEW OR NO CLOUDS BELOW 12,000 FEET WITH NO
SIGNIFICANT WEATHER AND/OR OBSTRUCTIONS TO VISIBILITY.

* - THESE STATIONS ARE NOT NWS OR FAA STATIONS...AND ARE NOT SUBJECT
    TO NWS AND FAA QUALITY CONTROL.

TXZ171-172-183>190-270200-
TEXAS HILL COUNTRY AND EDWARDS PLATEAU

CITY           SKY/WX    TMP DP  RH WIND       PRES   REMARKS
JUNCTION       CLEAR     63  36  36 NE6       29.99R
*LLANO         CLEAR     57  46  67 CALM      30.01R
BURNET         CLEAR     61  42  49 CALM      30.00R
*HORSESHOE BAY NOT AVBL
*LAGO VISTA    CLEAR     63  43  48 N7        29.98S
*KERRVILLE     CLEAR     58  42  55 CALM      29.98R
*FREDERICKSBRG CLEAR     60  41  50 E3        29.99R
*ROCKSPRINGS   CLEAR     61  34  36 CALM      30.03S
*BOERNE        CLEAR     57  46  67 CALM      29.99R
*CASTROVILLE   CLEAR     68  49  51 S7        29.96S
HONDO          CLEAR     69  45  41 SE6       29.94R
*UVALDE        CLEAR     69  39  33 CALM      29.95R
DEL RIO        CLEAR     72  34  24 NE7       29.92S
*LAUGHLIN AFB  NOT AVBL
*SPOFFORD      NOT AVBL
*EAGLE PASS    CLEAR     68  28  22 N5        29.94S
CARRIZO SPRGS  CLEAR     63  36  36 CALM      29.93R
*FAITH RANCH   CLEAR     70  36  28 NE5       29.94S
$$

TXZ173-191>194-202-209-217>225-228-270200-
CENTRAL AND SOUTH CENTRAL TEXAS

CITY           SKY/WX    TMP DP  RH WIND       PRES   REMARKS
GEORGETOWN     CLEAR     63  47  55 NE6       30.00R
*TAYLOR        CLEAR     63  52  67 NE7       29.97R
AUSTIN/BERGSTM CLEAR     66  45  46 NE8       29.96R
AUSTIN/MABRY   CLEAR     67  41  38 NE3       29.97R
*PFLUGERVILLE  PTCLDY    63  45  51 NE8       29.98R
SAN MARCOS     CLEAR     61  46  57 NE8       29.97R
NEW BRAUNFELS  CLEAR     64  46  52 E3        29.95R
*RANDOLPH AFB  CLEAR     68  49  49 CALM      29.95R
*SEGUIN        CLEAR     63  46  52 E3        29.99R
SAN ANTONIO    CLEAR     66  47  50 E5        29.95R
STINSON FIELD  CLEAR     68  47  46 SE3       29.93R
*KELLY FIELD   CLEAR     66  49  54 S5        29.93R
*PLEASANTON    CLEAR     63  47  56 CALM      29.95R
*KENEDY        CLEAR     66  52  60 CALM      29.96R
*LA GRANGE     CLEAR     60  51  71 CALM      29.94R
*GIDDINGS      CLEAR     66  47  51 NE5       29.97R
*GONZALES      CLEAR     68  46  45 NE6       29.95R
$$

TXZ163>164-176>182-195>201-210>213-226-227-235-270200-
SOUTHEAST TEXAS

CITY           SKY/WX    TMP DP  RH WIND       PRES   REMARKS
COLLEGE STN    CLEAR     63  51  65 N10       29.97R
*BRYAN         CLEAR     59  52  78 N6        30.00R
*CALDWELL      CLEAR     61  51  69 N7        29.98R
*CROCKETT      NOT AVBL
*BRENHAM       CLEAR     61  50  68 N8        29.97R
HUNTSVILLE     CLEAR     62  53  72 N6        29.97R
CONROE         CLEAR     57  54  89 CALM      29.96R
HOUSTON BUSH   CLEAR     63  52  67 NE8       29.94R
HOUSTON HOBBY  FAIR      69  51  52 N6        29.93S
*HOUSTON SW AP FAIR      63  52  67 CALM      29.95R
PEARLAND       FAIR      65  57  75 E6        29.96R
HOUSTON HOOKS  FAIR      59  50  72 CALM      29.95R
ELLINGTON FLD  PTCLDY    64  55  72 E5        29.94R
SUGAR LAND     FAIR      62  54  74 CALM      29.94R
*HOUSTON EXEC  FAIR      63  52  67 CALM      29.96R
*CLEVELAND MUN FAIR      56  54  93 CALM      29.97R
*WHARTON       CLEAR     64  49  59 CALM      29.96R
*COLUMBUS      FAIR      55  32  42 CALM      29.97R
*EAGLE LAKE    CLEAR     61  55  79 N3        29.95
$$

TXZ214>216-236>238-270200-
THE UPPER TEXAS COAST

CITY           SKY/WX    TMP DP  RH WIND       PRES   REMARKS
*ORANGE        CLOUDY    60  58  93 CALM      29.99R
PORT ARTHUR    MOCLDY    60  57  89 NE3       29.96R
GALVESTON      FAIR      65  59  81 NE6       29.95R
ANGLETON       FAIR      64  56  75 E7        29.95R
*BAY CITY      CLEAR     67  56  67 N5        29.94R
PALACIOS       CLEAR     65  56  72 N5        29.94
$$

TXZ229>234-239>247-270200-
TEXAS COASTAL BEND AND RIO GRANDE PLAINS

CITY           SKY/WX    TMP DP  RH WIND       PRES   REMARKS
VICTORIA       CLEAR     66  53  63 NE5       29.95R
*BEEVILLE      NOT AVBL
ROCKPORT       CLEAR     65  58  78 SE5       29.94R
*PORT ARANSAS  CLEAR     62  60  92 SE6       29.97R
*PORT LAVACA   NOT AVBL
*INGLESIDE     CLEAR     63  61  91 S6        29.94R
CORPUS CHRISTI PTCLDY    65  58  78 SE6       29.95R
CORPUS NAS     CLEAR     62  61  96 SE5       29.95R
*ROBSTOWN      CLEAR     65  56  72 E5        29.95R
ALICE          CLEAR     68  52  56 E6        29.94R
KINGSVILLE NAS PTCLDY    68  54  60 E7        29.95R
COTULLA        CLEAR     73  45  36 E6        29.94R
LAREDO         CLEAR     71  43  36 N5        29.93R
$$

TXZ248>255-270200-
DEEP SOUTH TEXAS

CITY           SKY/WX    TMP DP  RH WIND       PRES   REMARKS
BROWNSVILLE    MOCLDY    64  61  90 E7        29.94R
PORT ISABEL    FAIR      65  61  87 NE10      29.94R
HARLINGEN      CLEAR     64  61  90 E8        29.94R
*HEBBRONVILLE  CLEAR     71  43  35 N5        29.95R
MCALLEN        CLEAR     77  54  44 E7        29.92R
*WESLACO       PTCLDY    72  56  55 E5        29.93
FALFURRIAS     CLEAR     71  54  55 E6        29.94R
EDINBURG       FAIR      71  53  53 NE6       29.94R
*ZAPATA        FAIR      73  45  36 CALM      29.95R
$$

TXZ213>215-236>238-242>244-246-247-251-254-255-270200-
CMAN STATIONS

STATION/POSITION TIME  TEMP    WIND        PRES    WAVE
                       AIR SEA DIR/SP/G            HT/PER
                 (UTC) (F)     (DEG/KT/KT) (MB)    (FT/S)
SABINE PASS      0030   59 61   60/  1/  2 1016.1
SEA RIM ST PARK  0100   58      60/  4/  4 1014.5
NORTH JETTY/GLS  0030   62 61   90/  8/  9 1012.8
EAGLE POINT      0030   63 61   40/  7/  8 1013.3
MORGANS POINT    0030   64 61  100/  4/  5 1013.9
PORT O`CONNOR    0030   66 66  210/  1/  3 1013.4
PORT ARANSAS     0100   62 62  150/  5/  6 1014.1
MALAQUITE BEACH  0030   62 64  120/  4/  5 1013.6
BAFFIN BAY       0030   63 68   70/  7/  8 1014.1
PORT ISABEL      0030   63 67   50/ 10/ 12 1014.0
$$




USA.gov is the U.S. government's official web portal to all federal, state and local government web resources and services.